sat.trackr.live / text

‹ back to catalog

STARLINK-32600

NORAD 62178 · 2024-225R

PAYLOAD ACTIVE UNKNOWN

§ Identity

Operator
Country
US
Launch date
2024-11-30
Launch site
AFWTR
Launch vehicle
Mass (kg)
RCS (m²)

Purposes: comms

External: N2YO · Heavens-Above · Gunter

§ Orbital elements

Epoch: 2026-05-24T22:33:12.101760Z

Period
96.11 min
Inclination
70.0016°
Eccentricity
0.0002887
Mean motion
14.98335758 rev/d
Perigee alt
570.0 km
Apogee alt
574.0 km
Semi-major
6,950.2 km
B*
3.9969e-4
RAAN
322.3094°
Arg perigee
265.0262°
Mean anomaly
95.0567°
Rev number
8,154

§ Raw data

STARLINK-326001 62178U 24225R   26144.93972340  .00004680  00000+0  39969-3 0  99992 62178  70.0016 322.3094 0002887 265.0262  95.0567 14.98335758 81544

JSON: /api/v1/satellites/62178 · /tle

For live sub-satellite position, see the globe view (requires WebGL).

§ Visibility from observer

Set your observer location to see the next 7 days of passes ≥ 10°. The values pass through the URL so the page stays shareable.

No JS? Fill the form by hand. The geolocation button needs JavaScript.